Montgomery, NY

3:57 AM EDT on August 24, 2017 (GMT -0400)
Orange County

Weather History for KMGJ - May, 2013

Change the Weather History Date:

Saturday, May 11, 2013

  Actual Average (KSWF) Record (KSWF)
Temperature  
Mean Temperature 63 °F -  
Max Temperature 71 °F 66 °F 94 °F (1979)
Min Temperature 57 °F 45 °F 30 °F (1983)
Degree Days  
Heating Degree Days 2    
Growing Degree Days 13 (Base 50)    
Moisture  
Dew Point 60 °F    
Average Humidity 89    
Maximum Humidity 100    
Minimum Humidity 75    
Precipitation  
Precipitation 0.52 in - - ()
Sea Level Pressure  
Sea Level Pressure 29.73 in    
Wind  
Wind Speed 5 mph (SW)    
Max Wind Speed 16 mph    
Max Gust Speed 22 mph    
Visibility 7 miles    
Events Rain    
Averages and records for this station are not official NWS values.
T = Trace of Precipitation, MM = Missing Value Source: NWS Daily Summary

Daily Weather History Graph

Daily Weather History Graph

Search for Another Location

Airport or City:

Trip Planner

Search our weather history database for the weather conditions in past years. The results will help you decide how hot, cold, wet, or windy it might be!

Date:

Astronomy

May. 11, 2013 Rise Set
Actual Time 5:41 AM EDT 8:05 PM EDT
Civil Twilight 5:10 AM EDT 8:36 PM EDT
Nautical Twilight 4:31 AM EDT 9:15 PM EDT
Astronomical Twilight 3:49 AM EDT 9:59 PM EDT
Moon 6:47 AM EDT (5/11) 9:44 PM EDT (5/11)
Length of Visible Light 15h 26m
Length of Day
14h 23m
Waxing Crescent, 3% of the Moon is Illuminated
May 11
Waxing Crescent
May 18
First Quarter
May 25
Full
May 31
Last Quarter
Jun 8
New

Hourly Weather History & Observations

Time (EDT) Temp. Dew Point Humidity Pressure Visibility Wind Dir Wind Speed Gust Speed Precip Events Conditions
12:54 AM 64.9 °F 57.0 °F 75% 29.87 in 10.0 mi WSW 3.5 mph - N/A   Mostly Cloudy
1:54 AM 62.1 °F 59.0 °F 90% 29.86 in 9.0 mi South 4.6 mph - 0.05 in Rain Light Rain
2:54 AM 61.0 °F 59.0 °F 93% 29.81 in 8.0 mi SSE 3.5 mph - 0.02 in Rain Light Rain
3:54 AM 61.0 °F 59.0 °F 93% 29.80 in 7.0 mi SSW 3.5 mph - 0.03 in Rain Light Rain
4:54 AM 61.0 °F 59.0 °F 93% 29.80 in 6.0 mi SSW 4.6 mph - 0.03 in Rain Light Rain
5:54 AM 61.0 °F 59.0 °F 93% 29.79 in 10.0 mi Calm Calm - 0.02 in   Overcast
6:54 AM 62.1 °F 59.0 °F 90% 29.78 in 6.0 mi Calm Calm - N/A   Mostly Cloudy
7:18 AM 62.6 °F 60.8 °F 94% 29.78 in 9.0 mi South 3.5 mph - N/A   Overcast
7:54 AM 63.0 °F 60.1 °F 90% 29.77 in 10.0 mi SSW 4.6 mph - N/A   Overcast
8:54 AM 64.0 °F 60.1 °F 87% 29.78 in 10.0 mi SW 9.2 mph - N/A   Overcast
9:54 AM 66.9 °F 61.0 °F 81% 29.75 in 10.0 mi SW 12.7 mph - N/A   Overcast
10:54 AM 66.9 °F 60.1 °F 79% 29.75 in 10.0 mi SW 13.8 mph - N/A   Overcast
11:12 AM 68.0 °F 60.8 °F 78% 29.75 in 10.0 mi SW 10.4 mph - N/A   Overcast
11:54 AM 69.1 °F 61.0 °F 75% 29.74 in 10.0 mi WSW 13.8 mph 21.9 mph N/A   Mostly Cloudy
12:54 PM 69.1 °F 61.0 °F 75% 29.73 in 10.0 mi SSW 16.1 mph 20.7 mph 0.00 in   Overcast
1:41 PM 66.2 °F 62.6 °F 88% 29.72 in 1.8 mi SW 10.4 mph - 0.08 in Rain Heavy Rain
1:54 PM 66.0 °F 62.1 °F 87% 29.72 in 1.2 mi SW 8.1 mph - 0.19 in Rain Heavy Rain
2:04 PM 66.2 °F 62.6 °F 88% 29.72 in 3.0 mi WSW 5.8 mph - 0.02 in Rain Rain
2:14 PM 66.2 °F 62.6 °F 88% 29.72 in 5.0 mi SW 4.6 mph - 0.03 in Rain Light Rain
2:21 PM 66.2 °F 62.6 °F 88% 29.72 in 1.8 mi SW 9.2 mph - 0.09 in Rain Heavy Rain
2:32 PM 66.2 °F 62.6 °F 88% 29.72 in 3.0 mi SW 9.2 mph - 0.11 in Rain Light Rain
2:54 PM 66.9 °F 63.0 °F 87% 29.71 in 7.0 mi SW 4.6 mph - 0.11 in Rain Light Rain
3:54 PM 64.9 °F 62.1 °F 90% 29.70 in 5.0 mi South 4.6 mph - 0.06 in Rain Light Rain
5:54 PM 69.1 °F 62.1 °F 78% 29.69 in 10.0 mi SSE 3.5 mph - N/A   Mostly Cloudy
6:16 PM 66.2 °F 60.8 °F 83% 29.70 in 10.0 mi North 4.6 mph - N/A   Overcast
6:54 PM 64.0 °F 60.1 °F 87% 29.70 in 10.0 mi NNW 4.6 mph - 0.01 in   Overcast
7:02 PM 64.4 °F 60.8 °F 88% 29.71 in 10.0 mi North 3.5 mph - N/A   Mostly Cloudy
7:54 PM 63.0 °F 60.1 °F 90% 29.70 in 10.0 mi Calm Calm - N/A   Mostly Cloudy
8:01 PM 62.6 °F 60.8 °F 94% 29.70 in 10.0 mi Calm Calm - N/A   Mostly Cloudy
8:11 PM 62.6 °F 60.8 °F 94% 29.70 in 10.0 mi Calm Calm - N/A   Overcast
8:51 PM 62.6 °F 60.8 °F 94% 29.70 in 10.0 mi Calm Calm - N/A   Overcast
8:54 PM 63.0 °F 61.0 °F 93% 29.70 in 10.0 mi Calm Calm - N/A   Overcast
9:44 PM 62.6 °F 60.8 °F 94% 29.70 in 6.0 mi Calm Calm - N/A   Mostly Cloudy
9:54 PM 61.0 °F 59.0 °F 93% 29.69 in 7.0 mi Calm Calm - N/A   Scattered Clouds
9:59 PM 60.8 °F 59.0 °F 94% 29.69 in 1.8 mi Calm Calm - N/A   Scattered Clouds
10:02 PM 59.0 °F 57.2 °F 94% 29.70 in 0.8 mi Calm Calm - N/A   Scattered Clouds
10:22 PM 60.8 °F 59.0 °F 94% 29.69 in 1.2 mi Calm Calm - N/A   Mostly Cloudy
10:26 PM 60.8 °F 59.0 °F 94% 29.69 in 3.0 mi Calm Calm - N/A   Mostly Cloudy
10:34 PM 59.0 °F 57.2 °F 94% 29.70 in 1.5 mi Calm Calm - N/A   Scattered Clouds
10:52 PM 57.2 °F 57.2 °F 100% 29.70 in 0.8 mi SSW 5.8 mph - N/A   Mostly Cloudy
10:54 PM 57.9 °F 57.0 °F 97% 29.70 in 0.8 mi SSW 4.6 mph - N/A   Mostly Cloudy
10:58 PM 57.2 °F 57.2 °F 100% 29.70 in 1.2 mi SSW 4.6 mph - N/A   Mostly Cloudy
11:03 PM 59.0 °F 57.2 °F 94% 29.69 in 3.0 mi West 3.5 mph - N/A   Mostly Cloudy
11:54 PM 57.9 °F 55.9 °F 93% 29.68 in 10.0 mi WSW 5.8 mph - N/A   Clear